Regional Weather Roundup
Issued by NWS Boston, MA

Current Version | Previous Version | Text Only | Print | Product List | Glossary Off
Versions: 1 2 3 4 5 6 7 8 9 10 11 12 13 14 15 16 17 18 19 20 21 22 23 24 25 26 27 28 29 30 31 32 33 34 35 36 37 38 39 40 41 42 43 44 45 46 47 48 49 50

000
ASUS41 KBOX 270510
RWRBOX

REGIONAL WEATHER ROUNDUP
NATIONAL WEATHER SERVICE TAUNTON MA
1200 AM EST TUE JAN 27 2015

NOTE:  "FAIR" INDICATES FEW OR NO CLOUDS BELOW 12,000 FEET WITH NO
SIGNIFICANT WEATHER AND/OR OBSTRUCTIONS TO VISIBILITY.  THE FOLLOWING
OBSERVATION LOCATIONS DO NOT REPORT PRESENT WEATHER...PROVINCETOWN...
SMITHFIELD...BLOCK ISLAND...KEENE...AND OXFORD.

MAZALL-270600-
EASTERN MASSACHUSETTS

CITY           SKY/WX    TMP DP  RH WIND       PRES   REMARKS
BOSTON         SNOW      19  17  92 N22G28    29.81F VSB 1/2 WCI   2
BEVERLY        SNOW      18  13  80 N21G30    29.82F VSB 1/2 WCI   1
LAWRENCE       LGT SNOW  14  10  84 N25G35    29.88F FOG     WCI  -5
BEDFORD        LGT SNOW  15  11  83 N22G31    29.84F FOG     WCI  -3
BLUE HILL        N/A     17  16  95 N18G35    29.72F WCI   1
NORWOOD        FOG       19  15  84 N14G21    29.78F VSB 1   WCI   6
MARSHFIELD     SNOW      32  30  93 NE21G40   29.76F WCI  20
PLYMOUTH       FOG       29  28  96 NE29G45   29.69F VSB 1/2 WCI  14
TAUNTON        HVY SNOW  29  27  92 NE14G40   29.68F VSB 1/4 WCI  18
NEW BEDFORD    SNOW      29  27  92 N20G39    29.62F VSB 1/2 WCI  16
$$

MAZALL-270600-
CAPE COD AND THE ISLANDS

CITY           SKY/WX    TMP DP  RH WIND       PRES   REMARKS
FALMOUTH       MIX PCPN  30  28  93 NE41G55   29.59F VSB 1/2 WCI  13
HYANNIS        FOG       30  28  92 NE30G59   29.58F VSB 1/4 WCI  15
CHATHAM        SNOW      30  30 100 NE31G49   29.60F VSB 1/2 WCI  15
PROVINCETOWN   CLOUDY    30  28  93 NE41G53   29.73F VSB 1/4 WCI  13
NANTUCKET      LGT SNOW  33  31  92 NE52G64   29.46F FOG     WCI  16
MARTHAS VNYRD  HVY SNOW  30  28  92 NE39G59   29.52F VSB 1/4 WCI  13
$$

MAZALL-270600-
CENTRAL AND WESTERN MASSACHUSETTS

CITY           SKY/WX    TMP DP  RH WIND       PRES   REMARKS
WORCESTER      SNOW      13  10  88 NE20G33   29.74F VSB 1/2 WCI  -5
FITCHBURG      LGT SNOW  15   9  76 N15G23    29.88F VSB 1   WCI   0
ORANGE         LGT SNOW  15   9  76 N14G20    29.85F WCI   0
SPRINGFIELD    LGT SNOW  18  14  86 NE23      29.79F WCI   0
WESTFIELD      LGT SNOW  18  13  80 N18G30    29.81F VSB 1   WCI   2
NORTH ADAMS    CLOUDY    19   6  57 VRB3      29.86F
PITTSFIELD     CLOUDY    17   9  70 NE14G23   29.77F WCI   3
$$

RIZALL-270600-
RHODE ISLAND

CITY           SKY/WX    TMP DP  RH WIND       PRES   REMARKS
PROVIDENCE     LGT SNOW  21  18  88 N30G37    29.68F VSB 3/4 WCI   3
NEWPORT        SNOW      28  26  92 N26G37    29.59F VSB 1/2 WCI  13
BLOCK ISLAND   CLOUDY    30  25  80 NE33G61   29.52F VSB 1/2 WCI  14
SMITHFIELD     CLOUDY    18   9  68 N25G38    29.69F WCI  -1
WESTERLY       LGT SNOW  24  21  88 N20G32    29.60F VSB 3/4 WCI  10
$$

CTZALL-270600-
CONNECTICUT

CITY           SKY/WX    TMP DP  RH WIND       PRES   REMARKS
BRADLEY INTL   LGT SNOW  19  14  81 N25G31    29.78F VSB 1   WCI   1
HARTFORD       SNOW      20  17  88 N20       29.75F VSB 1/2 WCI   4
BRIDGEPORT     LGT SNOW  23  21  92 N25G39    29.64F VSB 3/4 WCI   7
DANBURY        LGT SNOW  22  16  78 N16G22    29.71F VSB 3/4 WCI   8
GROTON         LGT SNOW  23  20  88 N25G36    29.59F FOG     WCI   7
NEW HAVEN      LGT SNOW  21  18  88 N29G40    29.64F VSB 3/4 WCI   3
CHESTER        SNOW      23  21  93 N24G35    29.63F VSB 1/2 WCI   7
MERIDEN        SNOW      20  16  84 N17G30    29.70F VSB 1/2 WCI   5
WILLIMANTIC    LGT SNOW  20  15  81 N23G35    29.71F VSB 1   WCI   3
OXFORD         CLOUDY    19  10  68 NE21G33   29.65F WCI   3
$$

MEZ002-015-021-024-NHZ003-005-008-011-012-014-VTZ005-008-270600-
NORTHERN NEW ENGLAND

CITY           SKY/WX    TMP DP  RH WIND       PRES   REMARKS
PORTLAND ME    CLOUDY    16  -2  45 N17G26    30.01F WCI   0
BANGOR ME      CLOUDY    10  -5  50 N20       30.16F WCI  -9
CONCORD NH     LGT SNOW  14   4  64 N13       29.96F WCI   0
MANCHESTER NH  LGT SNOW  16   1  51 N22G28    29.91F BLWGSNOWWCI  -2
NASHUA NH      LGT SNOW  15   8  73 N10       29.92F WCI   2
PORTSMOUTH NH  LGT SNOW  15   0  51 N18G28    29.91F WCI  -1
JAFFREY NH     LGT SNOW  11   6  81 N12G22    29.84F WCI  -3
KEENE NH       CLOUDY    16  -2  45 N10G25    29.90F WCI   3
BURLINGTON VT  CLOUDY     6  -2  69 N8        30.05F WCI  -7
MT. WASHINGTON MOCLDY     5  -4  66 E25         N/A  WCI -18
$$

NYZ052-076-270600-
EASTERN NEW YORK

CITY           SKY/WX    TMP DP  RH WIND       PRES   REMARKS
ALBANY         CLOUDY    17   5  59 N10       29.92F WCI   5
NEW YORK CITY  SNOW      25  21  86 N14       29.69F VSB 1/4 WCI  13
$$

ANZALL-270600-
MARINE OBSERVATIONS

STATION/POSITION TIME  TEMP    WIND        PRES    VSBY  WAVE
                       AIR SEA DIR/SP/G                  HT/PER
                 (UTC) (F)     (DEG/KT/KT) (MB)    (MI)  (FT/S)
BOSTON BUOY      0450   30 41   40/ 35/ 45 1006.8F        14/ 8
BUZZARDS BAY     0400           20/ 42/ 47 1001.6F
NANTUCKET SOUND  0450   32 39   40/ 39/ 49  998.7F         9/ 6
MASS BAY-STELLWA 0404   30 41   30/ 33/ 45   N/A    1 1/2 11/ 8
ISLE OF SHOALS   0500   19      20/ 39/ 45 1010.6F
S OF BLOCK IS    0408      44                N/A          14/ 8
$$

......................KEY.........................
  SKY/WX - SKY CONDITION/PRESENT WEATHER
  TMP    - TEMPERATURE IN FAHRENHEIT
  DWPT   - DEWPOINT IN FAHRENHEIT
  RH     - RELATIVE HUMIDITY IN PERCENT
  WIND   - DIRECTION AND SPEED IN MPH
  PRES   - MEAN SEA LEVEL PRESSURE IN INCHES OF HG
  WCI    - WIND CHILL INDEX
  VSB    - VISIBILITY IN MILES
  HX     - HEAT INDEX
  TC     - TEMPERATURE IN CELSIUS
  VRB    - VARIABLE WIND DIRECTION
  N/A    - NOT AVAILABLE



USA.gov is the U.S. government's official web portal to all federal, state and local government web resources and services.